Year,Month,Day,Hour,Minute,Value (Times are PST for temperature in C)
2009,06,30,00,00,11.10
2009,06,30,00,01,11.10
2009,06,30,00,02,11.10
2009,06,30,00,03,11.10
2009,06,30,00,04,11.10
2009,06,30,00,05,11.10
2009,06,30,00,06,11.10
2009,06,30,00,07,11.10
2009,06,30,00,08,11.10
2009,06,30,00,09,11.10
2009,06,30,00,10,11.10
2009,06,30,00,11,11.10
2009,06,30,00,12,11.10
2009,06,30,00,13,11.10
2009,06,30,00,14,11.10
2009,06,30,00,15,11.10
2009,06,30,00,16,11.10
2009,06,30,00,17,11.10
2009,06,30,00,18,11.10
2009,06,30,00,19,11.10
2009,06,30,00,20,11.10
2009,06,30,00,21,11.10
2009,06,30,00,22,11.10
2009,06,30,00,23,11.10
2009,06,30,00,24,11.10
2009,06,30,00,25,11.10
2009,06,30,00,26,11.10
2009,06,30,00,27,11.10
2009,06,30,00,28,11.00
2009,06,30,00,29,10.90
2009,06,30,00,30,10.90
2009,06,30,00,31,10.90
2009,06,30,00,32,10.90
2009,06,30,00,33,10.90
2009,06,30,00,34,10.90
2009,06,30,00,35,10.90
2009,06,30,00,36,10.90
2009,06,30,00,37,10.90
2009,06,30,00,38,10.90
2009,06,30,00,39,10.90
2009,06,30,00,40,10.90
2009,06,30,00,41,10.90
2009,06,30,00,42,10.90
2009,06,30,00,43,10.90
2009,06,30,00,44,10.90
2009,06,30,00,45,10.90
2009,06,30,00,46,10.90
2009,06,30,00,47,10.90
2009,06,30,00,48,10.90
2009,06,30,00,49,10.90
2009,06,30,00,50,10.90
2009,06,30,00,51,10.90
2009,06,30,00,52,10.90
2009,06,30,00,53,10.80
2009,06,30,00,54,10.80
2009,06,30,00,55,10.80
2009,06,30,00,56,10.80
2009,06,30,00,57,10.80
2009,06,30,00,58,10.80
2009,06,30,00,59,10.80
2009,06,30,01,00,10.80
2009,06,30,01,01,10.70
2009,06,30,01,02,10.70
2009,06,30,01,03,10.70
2009,06,30,01,04,10.60
2009,06,30,01,05,10.60
2009,06,30,01,06,10.60
2009,06,30,01,07,10.50
2009,06,30,01,08,10.40
2009,06,30,01,09,10.40
2009,06,30,01,10,10.40
2009,06,30,01,11,10.40
2009,06,30,01,12,10.30
2009,06,30,01,13,10.20
2009,06,30,01,14,10.20
2009,06,30,01,15,10.20
2009,06,30,01,16,10.20
2009,06,30,01,17,10.20
2009,06,30,01,18,10.20
2009,06,30,01,19,10.20
2009,06,30,01,20,10.10
2009,06,30,01,21,10.10
2009,06,30,01,22,10.10
2009,06,30,01,23,10.10
2009,06,30,01,24,10.10
2009,06,30,01,25,10.10
2009,06,30,01,26,10.10
2009,06,30,01,27,10.10
2009,06,30,01,28,10.10
2009,06,30,01,29,9.90
2009,06,30,01,30,9.90
2009,06,30,01,31,9.90
2009,06,30,01,32,9.90
2009,06,30,01,33,9.90
2009,06,30,01,34,9.90
2009,06,30,01,35,9.80
2009,06,30,01,36,9.80
2009,06,30,01,37,9.80
2009,06,30,01,38,9.70
2009,06,30,01,39,9.70
2009,06,30,01,40,9.70
2009,06,30,01,41,9.70
2009,06,30,01,42,9.70
2009,06,30,01,43,9.70
2009,06,30,01,44,9.70
2009,06,30,01,45,9.70
2009,06,30,01,46,9.70
2009,06,30,01,47,9.60
2009,06,30,01,48,9.60
2009,06,30,01,49,9.60
2009,06,30,01,50,9.60
2009,06,30,01,51,9.60
2009,06,30,01,52,9.60
2009,06,30,01,53,9.50
2009,06,30,01,54,9.50
2009,06,30,01,55,9.50
2009,06,30,01,56,9.40
2009,06,30,01,57,9.40
2009,06,30,01,58,9.40
2009,06,30,01,59,9.40
2009,06,30,02,00,9.40
2009,06,30,02,01,9.40
2009,06,30,02,02,9.40
2009,06,30,02,03,9.40
2009,06,30,02,04,9.40
2009,06,30,02,05,9.50
2009,06,30,02,06,9.50
2009,06,30,02,07,9.50
2009,06,30,02,08,9.50
2009,06,30,02,09,9.50
2009,06,30,02,10,9.50
2009,06,30,02,11,9.50
2009,06,30,02,12,9.50
2009,06,30,02,13,9.50
2009,06,30,02,14,9.50
2009,06,30,02,15,9.50
2009,06,30,02,16,9.50
2009,06,30,02,17,9.50
2009,06,30,02,18,9.50
2009,06,30,02,19,9.50
2009,06,30,02,20,9.50
2009,06,30,02,21,9.50
2009,06,30,02,22,9.50
2009,06,30,02,23,9.60
2009,06,30,02,24,9.60
2009,06,30,02,25,9.60
2009,06,30,02,26,9.60
2009,06,30,02,27,9.60
2009,06,30,02,28,9.60
2009,06,30,02,29,9.60
2009,06,30,02,30,9.70
2009,06,30,02,31,9.70
2009,06,30,02,32,9.70
2009,06,30,02,33,9.70
2009,06,30,02,34,9.60
2009,06,30,02,35,9.60
2009,06,30,02,36,9.60
2009,06,30,02,37,9.60
2009,06,30,02,38,9.60
2009,06,30,02,39,9.60
2009,06,30,02,40,9.50
2009,06,30,02,41,9.50
2009,06,30,02,42,9.50
2009,06,30,02,43,9.50
2009,06,30,02,44,9.50
2009,06,30,02,45,9.50
2009,06,30,02,46,9.50
2009,06,30,02,47,9.50
2009,06,30,02,48,9.50
2009,06,30,02,49,9.50
2009,06,30,02,50,9.50
2009,06,30,02,51,9.50
2009,06,30,02,52,9.60
2009,06,30,02,53,9.60
2009,06,30,02,54,9.60
2009,06,30,02,55,9.70
2009,06,30,02,56,9.70
2009,06,30,02,57,9.70
2009,06,30,02,58,9.70
2009,06,30,02,59,9.70
2009,06,30,03,00,9.60
2009,06,30,03,01,9.60
2009,06,30,03,02,9.60
2009,06,30,03,03,9.60
2009,06,30,03,04,9.60
2009,06,30,03,05,9.60
2009,06,30,03,06,9.50
2009,06,30,03,07,9.50
2009,06,30,03,08,9.50
2009,06,30,03,09,9.50
2009,06,30,03,10,9.50
2009,06,30,03,11,9.40
2009,06,30,03,12,9.40
2009,06,30,03,13,9.40
2009,06,30,03,14,9.40
2009,06,30,03,15,9.40
2009,06,30,03,16,9.40
2009,06,30,03,17,9.40
2009,06,30,03,18,9.30
2009,06,30,03,19,9.30
2009,06,30,03,20,9.30
2009,06,30,03,21,9.30
2009,06,30,03,22,9.20
2009,06,30,03,23,9.20
2009,06,30,03,24,9.20
2009,06,30,03,25,9.20
2009,06,30,03,26,9.20
2009,06,30,03,27,9.20
2009,06,30,03,28,9.20
2009,06,30,03,29,9.10
2009,06,30,03,30,9.10
2009,06,30,03,31,9.10
2009,06,30,03,32,9.10
2009,06,30,03,33,9.00
2009,06,30,03,34,9.00
2009,06,30,03,35,9.00
2009,06,30,03,36,9.00
2009,06,30,03,37,8.90
2009,06,30,03,38,8.90
2009,06,30,03,39,8.90
2009,06,30,03,40,8.80
2009,06,30,03,41,8.80
2009,06,30,03,42,8.70
2009,06,30,03,43,8.70
2009,06,30,03,44,8.70
2009,06,30,03,45,8.70
2009,06,30,03,46,8.70
2009,06,30,03,47,8.60
2009,06,30,03,48,8.60
2009,06,30,03,49,8.50
2009,06,30,03,50,8.50
2009,06,30,03,51,8.50
2009,06,30,03,52,8.40
2009,06,30,03,53,8.40
2009,06,30,03,54,8.40
2009,06,30,03,55,8.30
2009,06,30,03,56,8.30
2009,06,30,03,57,8.30
2009,06,30,03,58,8.30
2009,06,30,03,59,8.30
2009,06,30,04,00,8.30
2009,06,30,04,01,8.20
2009,06,30,04,02,8.20
2009,06,30,04,03,8.20
2009,06,30,04,04,8.20
2009,06,30,04,05,8.20
2009,06,30,04,06,8.20
2009,06,30,04,07,8.20
2009,06,30,04,08,8.20
2009,06,30,04,09,8.10
2009,06,30,04,10,8.10
2009,06,30,04,11,8.10
2009,06,30,04,12,8.10
2009,06,30,04,13,8.10
2009,06,30,04,14,8.10
2009,06,30,04,15,8.10
2009,06,30,04,16,8.00
2009,06,30,04,17,8.00
2009,06,30,04,18,8.00
2009,06,30,04,19,8.00
2009,06,30,04,20,8.00
2009,06,30,04,21,8.00
2009,06,30,04,22,8.00
2009,06,30,04,23,8.00
2009,06,30,04,24,8.00
2009,06,30,04,25,8.00
2009,06,30,04,26,8.00
2009,06,30,04,27,8.00
2009,06,30,04,28,8.00
2009,06,30,04,29,8.00
2009,06,30,04,30,8.00
2009,06,30,04,31,8.00
2009,06,30,04,32,8.00
2009,06,30,04,33,8.00
2009,06,30,04,34,8.00
2009,06,30,04,35,8.00
2009,06,30,04,36,8.00
2009,06,30,04,37,8.00
2009,06,30,04,38,8.10
2009,06,30,04,39,8.10
2009,06,30,04,40,8.10
2009,06,30,04,41,8.10
2009,06,30,04,42,8.10
2009,06,30,04,43,8.10
2009,06,30,04,44,8.20
2009,06,30,04,45,8.20
2009,06,30,04,46,8.20
2009,06,30,04,47,8.20
2009,06,30,04,48,8.20
2009,06,30,04,49,8.20
2009,06,30,04,50,8.20
2009,06,30,04,51,8.20
2009,06,30,04,52,8.20
2009,06,30,04,53,8.20
2009,06,30,04,54,8.20
2009,06,30,04,55,8.20
2009,06,30,04,56,8.20
2009,06,30,04,57,8.20
2009,06,30,04,58,8.20
2009,06,30,04,59,8.20
2009,06,30,05,00,8.20
2009,06,30,05,01,8.20
2009,06,30,05,02,8.20
2009,06,30,05,03,8.20
2009,06,30,05,04,8.20
2009,06,30,05,05,8.20
2009,06,30,05,06,8.20
2009,06,30,05,07,8.20
2009,06,30,05,08,8.20
2009,06,30,05,09,8.20
2009,06,30,05,10,8.20
2009,06,30,05,11,8.20
2009,06,30,05,12,8.20
2009,06,30,05,13,8.20
2009,06,30,05,14,8.20
2009,06,30,05,15,8.20
2009,06,30,05,16,8.20
2009,06,30,05,17,8.20
2009,06,30,05,18,8.30
2009,06,30,05,19,8.30
2009,06,30,05,20,8.30
2009,06,30,05,21,8.30
2009,06,30,05,22,8.30
2009,06,30,05,23,8.30
2009,06,30,05,24,8.30
2009,06,30,05,25,8.30
2009,06,30,05,26,8.30
2009,06,30,05,27,8.30
2009,06,30,05,28,8.30
2009,06,30,05,29,8.30
2009,06,30,05,30,8.30
2009,06,30,05,31,8.30
2009,06,30,05,32,8.30
2009,06,30,05,33,8.30
2009,06,30,05,34,8.40
2009,06,30,05,35,8.40
2009,06,30,05,36,8.40
2009,06,30,05,37,8.40
2009,06,30,05,38,8.40
2009,06,30,05,39,8.50
2009,06,30,05,40,8.50
2009,06,30,05,41,8.50
2009,06,30,05,42,8.50
2009,06,30,05,43,8.50
2009,06,30,05,44,8.60
2009,06,30,05,45,8.60
2009,06,30,05,46,8.70
2009,06,30,05,47,8.70
2009,06,30,05,48,8.70
2009,06,30,05,49,8.80
2009,06,30,05,50,8.80
2009,06,30,05,51,8.90
2009,06,30,05,52,9.00
2009,06,30,05,53,9.00
2009,06,30,05,54,9.10
2009,06,30,05,55,9.20
2009,06,30,05,56,9.20
2009,06,30,05,57,9.20
2009,06,30,05,58,9.30
2009,06,30,05,59,9.30
2009,06,30,06,00,9.30
2009,06,30,06,01,9.40
2009,06,30,06,02,9.40
2009,06,30,06,03,9.50
2009,06,30,06,04,9.50
2009,06,30,06,05,9.50
2009,06,30,06,06,9.50
2009,06,30,06,07,9.60
2009,06,30,06,08,9.60
2009,06,30,06,09,9.60
2009,06,30,06,10,9.60
2009,06,30,06,11,9.60
2009,06,30,06,12,9.60
2009,06,30,06,13,9.60
2009,06,30,06,14,9.60
2009,06,30,06,15,9.70
2009,06,30,06,16,9.70
2009,06,30,06,17,9.70
2009,06,30,06,18,9.80
2009,06,30,06,19,9.80
2009,06,30,06,20,9.90
2009,06,30,06,21,9.90
2009,06,30,06,22,10.00
2009,06,30,06,23,10.10
2009,06,30,06,24,10.20
2009,06,30,06,25,10.20
2009,06,30,06,26,10.30
2009,06,30,06,27,10.40
2009,06,30,06,28,10.50
2009,06,30,06,29,10.60
2009,06,30,06,30,10.60
2009,06,30,06,31,10.70
2009,06,30,06,32,10.80
2009,06,30,06,33,10.90
2009,06,30,06,34,11.00
2009,06,30,06,35,11.10
2009,06,30,06,36,11.20
2009,06,30,06,37,11.20
2009,06,30,06,38,11.30
2009,06,30,06,39,11.40
2009,06,30,06,40,11.40
2009,06,30,06,41,11.50
2009,06,30,06,42,11.60
2009,06,30,06,43,11.60
2009,06,30,06,44,11.60
2009,06,30,06,45,11.70
2009,06,30,06,46,11.70
2009,06,30,06,47,11.80
2009,06,30,06,48,11.80
2009,06,30,06,49,11.80
2009,06,30,06,50,11.80
2009,06,30,06,51,11.90
2009,06,30,06,52,11.90
2009,06,30,06,53,12.00
2009,06,30,06,54,12.00
2009,06,30,06,55,12.00
2009,06,30,06,56,12.10
2009,06,30,06,57,12.10
2009,06,30,06,58,12.20
2009,06,30,06,59,12.20
2009,06,30,07,00,12.20
2009,06,30,07,01,12.10
2009,06,30,07,02,12.00
2009,06,30,07,03,11.90
2009,06,30,07,04,11.90
2009,06,30,07,05,11.80
2009,06,30,07,06,11.80
2009,06,30,07,07,11.80
2009,06,30,07,08,11.80
2009,06,30,07,09,11.80
2009,06,30,07,10,11.80
2009,06,30,07,11,11.80
2009,06,30,07,12,11.80
2009,06,30,07,13,11.80
2009,06,30,07,14,11.80
2009,06,30,07,15,11.90
2009,06,30,07,16,11.90
2009,06,30,07,17,12.00
2009,06,30,07,18,12.00
2009,06,30,07,19,12.10
2009,06,30,07,20,12.20
2009,06,30,07,21,12.30
2009,06,30,07,22,12.30
2009,06,30,07,23,12.40
2009,06,30,07,24,12.60
2009,06,30,07,25,12.60
2009,06,30,07,26,12.70
2009,06,30,07,27,12.80
2009,06,30,07,28,12.90
2009,06,30,07,29,12.90
2009,06,30,07,30,13.00
2009,06,30,07,31,13.10
2009,06,30,07,32,13.10
2009,06,30,07,33,13.20
2009,06,30,07,34,13.30
2009,06,30,07,35,13.40
2009,06,30,07,36,13.50
2009,06,30,07,37,13.50
2009,06,30,07,38,13.50
2009,06,30,07,39,13.60
2009,06,30,07,40,13.60
2009,06,30,07,41,13.70
2009,06,30,07,42,13.70
2009,06,30,07,43,13.80
2009,06,30,07,44,13.80
2009,06,30,07,45,13.80
2009,06,30,07,46,13.70
2009,06,30,07,47,13.70
2009,06,30,07,48,13.70
2009,06,30,07,49,13.70
2009,06,30,07,50,13.70
2009,06,30,07,51,13.70
2009,06,30,07,52,13.60
2009,06,30,07,53,13.60
2009,06,30,07,54,13.70
2009,06,30,07,55,13.70
2009,06,30,07,56,13.70
2009,06,30,07,57,13.70
2009,06,30,07,58,13.70
2009,06,30,07,59,13.70
2009,06,30,08,00,13.70
2009,06,30,08,01,13.70
2009,06,30,08,02,13.80
2009,06,30,08,03,13.90
2009,06,30,08,04,13.90
2009,06,30,08,05,14.00
2009,06,30,08,06,14.10
2009,06,30,08,07,14.20
2009,06,30,08,08,14.20
2009,06,30,08,09,14.20
2009,06,30,08,10,14.20
2009,06,30,08,11,14.20
2009,06,30,08,12,14.20
2009,06,30,08,13,14.20
2009,06,30,08,14,14.20
2009,06,30,08,15,14.20
2009,06,30,08,16,14.30
2009,06,30,08,17,14.30
2009,06,30,08,18,14.30
2009,06,30,08,19,14.40
2009,06,30,08,20,14.50
2009,06,30,08,21,14.60
2009,06,30,08,22,14.60
2009,06,30,08,23,14.70
2009,06,30,08,24,14.80
2009,06,30,08,25,14.80
2009,06,30,08,26,14.80
2009,06,30,08,27,14.70
2009,06,30,08,28,14.70
2009,06,30,08,29,14.70
2009,06,30,08,30,14.80
2009,06,30,08,31,14.80
2009,06,30,08,32,14.80
2009,06,30,08,33,14.80
2009,06,30,08,34,14.80
2009,06,30,08,35,14.90
2009,06,30,08,36,14.90
2009,06,30,08,37,15.00
2009,06,30,08,38,15.00
2009,06,30,08,39,15.10
2009,06,30,08,40,15.10
2009,06,30,08,41,15.10
2009,06,30,08,42,15.00
2009,06,30,08,43,15.00
2009,06,30,08,44,15.00
2009,06,30,08,45,15.10
2009,06,30,08,46,15.00
2009,06,30,08,47,15.00
2009,06,30,08,48,15.00
2009,06,30,08,49,15.10
2009,06,30,08,50,15.10
2009,06,30,08,51,15.10
2009,06,30,08,52,15.00
2009,06,30,08,53,15.00
2009,06,30,08,54,14.90
2009,06,30,08,55,14.90
2009,06,30,08,56,14.90
2009,06,30,08,57,14.90
2009,06,30,08,58,14.90
2009,06,30,08,59,15.00
2009,06,30,09,00,15.00
2009,06,30,09,01,15.10
2009,06,30,09,02,15.20
2009,06,30,09,03,15.30
2009,06,30,09,04,15.40
2009,06,30,09,05,15.40
2009,06,30,09,06,15.50
2009,06,30,09,07,15.60
2009,06,30,09,08,15.70
2009,06,30,09,09,15.70
2009,06,30,09,10,15.70
2009,06,30,09,11,15.80
2009,06,30,09,12,15.80
2009,06,30,09,13,15.90
2009,06,30,09,14,15.90
2009,06,30,09,15,15.90
2009,06,30,09,16,16.00
2009,06,30,09,17,16.10
2009,06,30,09,18,16.10
2009,06,30,09,19,16.00
2009,06,30,09,20,16.10
2009,06,30,09,21,16.10
2009,06,30,09,22,16.10
2009,06,30,09,23,16.10
2009,06,30,09,24,16.10
2009,06,30,09,25,16.20
2009,06,30,09,26,16.30
2009,06,30,09,27,16.20
2009,06,30,09,28,16.20
2009,06,30,09,29,16.10
2009,06,30,09,30,16.10
2009,06,30,09,31,16.10
2009,06,30,09,32,16.00
2009,06,30,09,33,15.90
2009,06,30,09,34,15.90
2009,06,30,09,35,15.90
2009,06,30,09,36,15.90
2009,06,30,09,37,15.90
2009,06,30,09,38,15.90
2009,06,30,09,39,15.90
2009,06,30,09,40,16.00
2009,06,30,09,41,16.10
2009,06,30,09,42,16.10
2009,06,30,09,43,16.10
2009,06,30,09,44,16.20
2009,06,30,09,45,16.20
2009,06,30,09,46,16.20
2009,06,30,09,47,16.30
2009,06,30,09,48,16.20
2009,06,30,09,49,16.30
2009,06,30,09,50,16.30
2009,06,30,09,51,16.30
2009,06,30,09,52,16.20
2009,06,30,09,53,16.20
2009,06,30,09,54,16.20
2009,06,30,09,55,16.20
2009,06,30,09,56,16.30
2009,06,30,09,57,16.30
2009,06,30,09,58,16.40
2009,06,30,09,59,16.30
2009,06,30,10,00,16.20
2009,06,30,10,01,16.20
2009,06,30,10,02,16.20
2009,06,30,10,03,16.30
2009,06,30,10,04,16.40
2009,06,30,10,05,16.50
2009,06,30,10,06,16.50
2009,06,30,10,07,16.60
2009,06,30,10,08,16.50
2009,06,30,10,09,16.40
2009,06,30,10,10,16.40
2009,06,30,10,11,16.40
2009,06,30,10,12,16.30
2009,06,30,10,13,16.20
2009,06,30,10,14,16.30
2009,06,30,10,15,16.30
2009,06,30,10,16,16.40
2009,06,30,10,17,16.60
2009,06,30,10,18,16.70
2009,06,30,10,19,16.70
2009,06,30,10,20,16.60
2009,06,30,10,21,16.50
2009,06,30,10,22,16.50
2009,06,30,10,23,16.60
2009,06,30,10,24,16.70
2009,06,30,10,25,16.70
2009,06,30,10,26,16.60
2009,06,30,10,27,16.60
2009,06,30,10,28,16.70
2009,06,30,10,29,16.60
2009,06,30,10,30,16.60
2009,06,30,10,31,16.70
2009,06,30,10,32,16.70
2009,06,30,10,33,16.70
2009,06,30,10,34,16.80
2009,06,30,10,35,16.90
2009,06,30,10,36,16.80
2009,06,30,10,37,16.70
2009,06,30,10,38,16.50
2009,06,30,10,39,16.30
2009,06,30,10,40,16.30
2009,06,30,10,41,16.30
2009,06,30,10,42,16.30
2009,06,30,10,43,16.30
2009,06,30,10,44,16.30
2009,06,30,10,45,16.40
2009,06,30,10,46,16.50
2009,06,30,10,47,16.60
2009,06,30,10,48,16.70
2009,06,30,10,49,16.70
2009,06,30,10,50,16.70
2009,06,30,10,51,16.70
2009,06,30,10,52,16.90
2009,06,30,10,53,16.90
2009,06,30,10,54,16.90
2009,06,30,10,55,16.90
2009,06,30,10,56,16.80
2009,06,30,10,57,16.70
2009,06,30,10,58,16.80
2009,06,30,10,59,16.90
2009,06,30,11,00,16.90
2009,06,30,11,01,17.00
2009,06,30,11,02,17.00
2009,06,30,11,03,17.00
2009,06,30,11,04,17.10
2009,06,30,11,05,17.10
2009,06,30,11,06,17.00
2009,06,30,11,07,16.90
2009,06,30,11,08,16.90
2009,06,30,11,09,16.80
2009,06,30,11,10,16.90
2009,06,30,11,11,16.90
2009,06,30,11,12,16.70
2009,06,30,11,13,16.80
2009,06,30,11,14,16.80
2009,06,30,11,15,16.80
2009,06,30,11,16,16.90
2009,06,30,11,17,16.90
2009,06,30,11,18,17.00
2009,06,30,11,19,16.90
2009,06,30,11,20,17.00
2009,06,30,11,21,17.10
2009,06,30,11,22,17.20
2009,06,30,11,23,17.20
2009,06,30,11,24,17.30
2009,06,30,11,25,17.30
2009,06,30,11,26,17.40
2009,06,30,11,27,17.40
2009,06,30,11,28,17.50
2009,06,30,11,29,17.50
2009,06,30,11,30,17.50
2009,06,30,11,31,17.60
2009,06,30,11,32,17.60
2009,06,30,11,33,17.70
2009,06,30,11,34,17.80
2009,06,30,11,35,17.80
2009,06,30,11,36,17.90
2009,06,30,11,37,18.00
2009,06,30,11,38,18.00
2009,06,30,11,39,17.80
2009,06,30,11,40,17.70
2009,06,30,11,41,17.60
2009,06,30,11,42,17.70
2009,06,30,11,43,17.90
2009,06,30,11,44,18.10
2009,06,30,11,45,18.10
2009,06,30,11,46,18.00
2009,06,30,11,47,17.90
2009,06,30,11,48,17.90
2009,06,30,11,49,18.00
2009,06,30,11,50,18.10
2009,06,30,11,51,17.90
2009,06,30,11,52,17.80
2009,06,30,11,53,17.70
2009,06,30,11,54,17.80
2009,06,30,11,55,17.90
2009,06,30,11,56,18.00
2009,06,30,11,57,18.20
2009,06,30,11,58,18.20
2009,06,30,11,59,18.40
2009,06,30,12,00,18.60
2009,06,30,12,01,18.70
2009,06,30,12,02,18.80
2009,06,30,12,03,18.80
2009,06,30,12,04,18.50
2009,06,30,12,05,18.30
2009,06,30,12,06,18.20
2009,06,30,12,07,18.20
2009,06,30,12,08,18.20
2009,06,30,12,09,18.20
2009,06,30,12,10,18.00
2009,06,30,12,11,17.80
2009,06,30,12,12,17.70
2009,06,30,12,13,17.50
2009,06,30,12,14,17.50
2009,06,30,12,15,17.50
2009,06,30,12,16,17.50
2009,06,30,12,17,17.60
2009,06,30,12,18,17.70
2009,06,30,12,19,17.80
2009,06,30,12,20,17.90
2009,06,30,12,21,18.00
2009,06,30,12,22,18.20
2009,06,30,12,23,18.20
2009,06,30,12,24,18.20
2009,06,30,12,25,18.10
2009,06,30,12,26,18.00
2009,06,30,12,27,17.90
2009,06,30,12,28,17.90
2009,06,30,12,29,18.00
2009,06,30,12,30,17.90
2009,06,30,12,31,17.90
2009,06,30,12,32,17.90
2009,06,30,12,33,17.80
2009,06,30,12,34,17.70
2009,06,30,12,35,17.70
2009,06,30,12,36,17.80
2009,06,30,12,37,17.90
2009,06,30,12,38,18.10
2009,06,30,12,39,18.10
2009,06,30,12,40,18.20
2009,06,30,12,41,18.20
2009,06,30,12,42,18.20
2009,06,30,12,43,18.20
2009,06,30,12,44,18.10
2009,06,30,12,45,18.00
2009,06,30,12,46,17.90
2009,06,30,12,47,17.90
2009,06,30,12,48,17.90
2009,06,30,12,49,17.80
2009,06,30,12,50,17.80
2009,06,30,12,51,17.90
2009,06,30,12,52,17.90
2009,06,30,12,53,18.10
2009,06,30,12,54,18.20
2009,06,30,12,55,18.30
2009,06,30,12,56,18.50
2009,06,30,12,57,18.50
2009,06,30,12,58,18.60
2009,06,30,12,59,18.70
2009,06,30,13,00,18.70
2009,06,30,13,01,18.60
2009,06,30,13,02,18.60
2009,06,30,13,03,18.70
2009,06,30,13,04,18.80
2009,06,30,13,05,18.80
2009,06,30,13,06,18.80
2009,06,30,13,07,18.70
2009,06,30,13,08,18.60
2009,06,30,13,09,18.50
2009,06,30,13,10,18.50
2009,06,30,13,11,18.40
2009,06,30,13,12,18.30
2009,06,30,13,13,18.20
2009,06,30,13,14,18.20
2009,06,30,13,15,18.20
2009,06,30,13,16,18.30
2009,06,30,13,17,18.30
2009,06,30,13,18,18.30
2009,06,30,13,19,18.30
2009,06,30,13,20,18.20
2009,06,30,13,21,18.30
2009,06,30,13,22,18.40
2009,06,30,13,23,18.50
2009,06,30,13,24,18.60
2009,06,30,13,25,18.50
2009,06,30,13,26,18.50
2009,06,30,13,27,18.30
2009,06,30,13,28,18.20
2009,06,30,13,29,18.20
2009,06,30,13,30,18.30
2009,06,30,13,31,18.40
2009,06,30,13,32,18.40
2009,06,30,13,33,18.50
2009,06,30,13,34,18.50
2009,06,30,13,35,18.60
2009,06,30,13,36,18.60
2009,06,30,13,37,18.40
2009,06,30,13,38,18.30
2009,06,30,13,39,18.30
2009,06,30,13,40,18.30
2009,06,30,13,41,18.40
2009,06,30,13,42,18.50
2009,06,30,13,43,18.70
2009,06,30,13,44,18.90
2009,06,30,13,45,18.90
2009,06,30,13,46,19.00
2009,06,30,13,47,19.10
2009,06,30,13,48,19.00
2009,06,30,13,49,19.10
2009,06,30,13,50,18.90
2009,06,30,13,51,18.90
2009,06,30,13,52,18.90
2009,06,30,13,53,18.90
2009,06,30,13,54,18.80
2009,06,30,13,55,18.90
2009,06,30,13,56,18.80
2009,06,30,13,57,18.60
2009,06,30,13,58,18.50
2009,06,30,13,59,18.50
2009,06,30,14,00,18.40
2009,06,30,14,01,18.30
2009,06,30,14,02,18.40
2009,06,30,14,03,18.30
2009,06,30,14,04,18.20
2009,06,30,14,05,18.20
2009,06,30,14,06,18.20
2009,06,30,14,07,18.30
2009,06,30,14,08,18.50
2009,06,30,14,09,18.60
2009,06,30,14,10,18.60
2009,06,30,14,11,18.40
2009,06,30,14,12,18.50
2009,06,30,14,13,18.50
2009,06,30,14,14,18.60
2009,06,30,14,15,18.80
2009,06,30,14,16,18.90
2009,06,30,14,17,18.90
2009,06,30,14,18,18.90
2009,06,30,14,19,18.90
2009,06,30,14,20,19.10
2009,06,30,14,21,19.30
2009,06,30,14,22,19.40
2009,06,30,14,23,19.40
2009,06,30,14,24,19.40
2009,06,30,14,25,19.30
2009,06,30,14,26,19.40
2009,06,30,14,27,19.40
2009,06,30,14,28,19.50
2009,06,30,14,29,19.50
2009,06,30,14,30,19.50
2009,06,30,14,31,19.50
2009,06,30,14,32,19.40
2009,06,30,14,33,19.40
2009,06,30,14,34,19.40
2009,06,30,14,35,19.40
2009,06,30,14,36,19.40
2009,06,30,14,37,19.50
2009,06,30,14,38,19.40
2009,06,30,14,39,19.20
2009,06,30,14,40,19.30
2009,06,30,14,41,19.30
2009,06,30,14,42,19.40
2009,06,30,14,43,19.50
2009,06,30,14,44,19.60
2009,06,30,14,45,19.70
2009,06,30,14,46,19.80
2009,06,30,14,47,19.80
2009,06,30,14,48,19.70
2009,06,30,14,49,19.60
2009,06,30,14,50,19.40
2009,06,30,14,51,19.40
2009,06,30,14,52,19.30
2009,06,30,14,53,19.40
2009,06,30,14,54,19.40
2009,06,30,14,55,19.40
2009,06,30,14,56,19.40
2009,06,30,14,57,19.50
2009,06,30,14,58,19.60
2009,06,30,14,59,19.80
2009,06,30,15,00,19.80
2009,06,30,15,01,19.80
2009,06,30,15,02,19.80
2009,06,30,15,03,19.80
2009,06,30,15,04,19.80
2009,06,30,15,05,19.60
2009,06,30,15,06,19.50
2009,06,30,15,07,19.60
2009,06,30,15,08,19.70
2009,06,30,15,09,19.70
2009,06,30,15,10,19.70
2009,06,30,15,11,19.80
2009,06,30,15,12,19.80
2009,06,30,15,13,19.80
2009,06,30,15,14,19.80
2009,06,30,15,15,19.80
2009,06,30,15,16,19.90
2009,06,30,15,17,19.90
2009,06,30,15,18,19.90
2009,06,30,15,19,19.80
2009,06,30,15,20,19.80
2009,06,30,15,21,19.80
2009,06,30,15,22,19.80
2009,06,30,15,23,19.70
2009,06,30,15,24,19.60
2009,06,30,15,25,19.70
2009,06,30,15,26,19.80
2009,06,30,15,27,19.80
2009,06,30,15,28,19.80
2009,06,30,15,29,19.80
2009,06,30,15,30,19.70
2009,06,30,15,31,19.70
2009,06,30,15,32,19.70
2009,06,30,15,33,19.70
2009,06,30,15,34,19.70
2009,06,30,15,35,19.90
2009,06,30,15,36,19.80
2009,06,30,15,37,19.80
2009,06,30,15,38,19.70
2009,06,30,15,39,19.80
2009,06,30,15,40,19.90
2009,06,30,15,41,19.90
2009,06,30,15,42,20.00
2009,06,30,15,43,20.20
2009,06,30,15,44,20.30
2009,06,30,15,45,20.40
2009,06,30,15,46,20.40
2009,06,30,15,47,20.20
2009,06,30,15,48,20.10
2009,06,30,15,49,20.00
2009,06,30,15,50,19.90
2009,06,30,15,51,19.80
2009,06,30,15,52,19.70
2009,06,30,15,53,19.70
2009,06,30,15,54,19.80
2009,06,30,15,55,19.70
2009,06,30,15,56,19.70
2009,06,30,15,57,19.80
2009,06,30,15,58,19.80
2009,06,30,15,59,19.90
2009,06,30,16,00,19.90
2009,06,30,16,01,19.90
2009,06,30,16,02,20.00
2009,06,30,16,03,19.90
2009,06,30,16,04,19.90
2009,06,30,16,05,19.90
2009,06,30,16,06,20.00
2009,06,30,16,07,20.10
2009,06,30,16,08,20.10
2009,06,30,16,09,20.10
2009,06,30,16,10,20.10
2009,06,30,16,11,20.10
2009,06,30,16,12,20.20
2009,06,30,16,13,20.20
2009,06,30,16,14,20.20
2009,06,30,16,15,20.20
2009,06,30,16,16,20.20
2009,06,30,16,17,20.20
2009,06,30,16,18,20.30
2009,06,30,16,19,20.30
2009,06,30,16,20,20.30
2009,06,30,16,21,20.30
2009,06,30,16,22,20.30
2009,06,30,16,23,20.30
2009,06,30,16,24,20.30
2009,06,30,16,25,20.40
2009,06,30,16,26,20.50
2009,06,30,16,27,20.50
2009,06,30,16,28,20.50
2009,06,30,16,29,20.50
2009,06,30,16,30,20.40
2009,06,30,16,31,20.40
2009,06,30,16,32,20.40
2009,06,30,16,33,20.40
2009,06,30,16,34,20.40
2009,06,30,16,35,20.40
2009,06,30,16,36,20.20
2009,06,30,16,37,20.00
2009,06,30,16,38,19.90
2009,06,30,16,39,19.90
2009,06,30,16,40,20.10
2009,06,30,16,41,20.20
2009,06,30,16,42,20.20
2009,06,30,16,43,20.10
2009,06,30,16,44,20.00
2009,06,30,16,45,19.90
2009,06,30,16,46,20.00
2009,06,30,16,47,20.10
2009,06,30,16,48,20.00
2009,06,30,16,49,20.10
2009,06,30,16,50,20.10
2009,06,30,16,51,19.90
2009,06,30,16,52,19.90
2009,06,30,16,53,19.90
2009,06,30,16,54,19.90
2009,06,30,16,55,19.90
2009,06,30,16,56,19.90
2009,06,30,16,57,19.90
2009,06,30,16,58,20.00
2009,06,30,16,59,20.00
2009,06,30,17,00,19.90
2009,06,30,17,01,19.90
2009,06,30,17,02,19.80
2009,06,30,17,03,19.80
2009,06,30,17,04,19.70
2009,06,30,17,05,19.70
2009,06,30,17,06,19.60
2009,06,30,17,07,19.50
2009,06,30,17,08,19.60
2009,06,30,17,09,19.70
2009,06,30,17,10,19.80
2009,06,30,17,11,19.80
2009,06,30,17,12,19.80
2009,06,30,17,13,19.80
2009,06,30,17,14,19.80
2009,06,30,17,15,19.90
2009,06,30,17,16,19.90
2009,06,30,17,17,19.90
2009,06,30,17,18,19.90
2009,06,30,17,19,19.80
2009,06,30,17,20,19.70
2009,06,30,17,21,19.80
2009,06,30,17,22,19.80
2009,06,30,17,23,19.70
2009,06,30,17,24,19.70
2009,06,30,17,25,19.70
2009,06,30,17,26,19.60
2009,06,30,17,27,19.60
2009,06,30,17,28,19.60
2009,06,30,17,29,19.70
2009,06,30,17,30,19.70
2009,06,30,17,31,19.70
2009,06,30,17,32,19.70